Wind_Speed
19 15 9 4 5 6 3 3 3 7 5 3 4 5 6 3 3 1 11 19 16 12 9 9 7 9 4 4 5 5 6 5 6 7 8 8 9 10 9 9 10 13 12 12 11 10 12 13 13
19 13 5 3 5 4 2 5 6 3 3 7 6 3 5 3 5 4 11 23 17 13 12 11 9 20 18 10 3 2 5 5 6 6 9 9 10 10 10 10 11 13 13 14 13 11 12 13 13
10 8 4 4 3 4 3 3 2 7 7 6 5 6 4 6 7 8 18 21 16 19 17 9 10 15 21 18 6 3 5 6 6 6 8 10 11 11 11 12 13 15 15 14 14 12 11 14 13
8 6 4 5 5 7 4 3 3 6 9 10 3 6 3 8 7 16 17 17 17 21 20 17 16 12 10 17 14 4 9 11 9 8 8 10 12 13 13 14 15 16 16 16 15 12 12 14 15
4 3 5 5 5 1 2 2 4 6 3 6 8 2 3 7 16 17 20 23 25 22 19 17 12 4 9 19 15 9 7 9 14 8 7 10 12 14 15 16 17 17 16 18 15 14 14 15 16
4 3 5 3 5 3 1 4 4 3 5 7 7 2 3 16 19 21 21 22 23 25 24 22 15 10 5 6 18 10 6 9 15 11 5 6 9 16 17 18 17 19 18 14 14 14 14 15 15
6 4 4 4 3 2 2 2 4 3 4 4 2 2 1 21 16 15 19 21 22 22 26 25 24 17 13 8 5 11 7 13 18 29 28 25 13 10 16 17 19 19 17 16 14 14 15 16 16
4 4 3 2 2 2 6 2 2 6 3 8 4 4 4 8 15 17 20 23 22 24 25 25 24 15 15 12 9 3 0 5 9 19 27 30 28 22 39 24 23 20 17 14 14 15 16 17 16
3 4 2 1 2 3 5 5 6 4 3 4 3 3 3 11 19 26 30 29 29 27 27 25 22 18 13 13 9 9 6 6 6 13 17 27 23 25 29 22 24 19 18 14 14 15 16 17 16
5 4 2 2 2 3 1 4 5 5 7 4 2 2 6 13 23 24 24 25 30 31 29 26 23 16 16 13 11 8 6 3 3 1 9 12 8 9 11 19 21 16 15 15 14 16 16 16 16
2 3 2 3 3 2 3 6 3 3 3 2 2 7 11 18 20 19 20 22 24 28 28 27 25 19 15 12 12 10 5 4 4 5 8 5 8 6 4 5 3 12 10 15 15 16 16 16 16
4 6 4 1 2 2 2 3 7 2 4 2 2 2 4 10 14 17 20 25 30 32 31 28 25 21 16 13 10 7 3 2 2 1 2 4 9 9 12 12 9 3 5 10 13 14 15 16 15
4 4 6 5 5 3 0 4 3 7 8 6 4 8 7 11 13 17 20 25 28 31 32 30 26 21 18 14 9 6 4 4 2 2 5 10 10 10 9 13 19 11 6 8 13 15 16 16 16
2 4 6 6 3 1 2 3 2 2 2 3 7 6 8 12 13 19 24 24 27 28 31 29 26 23 21 15 8 8 5 6 5 5 7 9 8 12 16 19 19 17 12 9 13 15 17 17 17
2 5 6 2 3 2 0 3 3 3 2 2 6 6 7 11 18 18 18 20 22 26 28 27 25 23 22 14 9 10 10 8 8 6 10 14 15 15 15 20 21 20 17 14 13 15 15 16 16
4 4 4 5 3 4 4 6 5 3 1 5 5 6 6 8 15 17 19 20 22 24 25 26 23 21 20 14 10 9 12 11 10 11 12 14 13 15 21 20 18 21 22 20 14 12 15 16 13
6 1 3 6 5 1 4 7 6 3 6 8 5 5 6 6 15 18 19 20 21 21 23 25 23 22 20 13 10 8 5 11 9 9 13 14 11 13 17 17 20 21 21 19 17 15 13 16 14
1 2 3 3 5 7 4 13 8 7 6 9 2 6 6 7 6 14 18 19 20 21 20 22 22 20 18 13 9 8 4 3 9 12 15 16 14 14 15 17 19 20 19 19 19 17 16 18 18
2 1 2 4 5 5 1 7 17 10 5 7 6 5 5 5 4 14 19 21 23 24 23 23 22 21 19 18 14 9 8 5 1 4 8 12 15 16 17 17 19 19 21 21 20 18 19 18 19
2 2 4 5 5 3 6 10 6 5 4 3 8 5 3 3 6 12 17 20 23 25 25 23 22 21 20 17 12 7 6 6 5 2 1 6 11 14 15 18 19 19 18 19 20 23 19 15 18
4 2 3 4 7 2 6 6 7 4 4 5 2 2 4 5 5 8 16 19 22 25 26 24 20 19 20 17 13 8 5 7 8 8 4 1 5 9 12 14 16 18 21 22 20 22 19 12 16
2 2 2 4 5 2 5 4 6 6 4 3 2 3 4 5 5 7 11 17 20 21 23 23 24 22 20 20 17 17 15 12 10 8 5 3 1 3 7 11 14 17 17 19 20 19 15 13 16
3 2 3 1 1 3 5 3 7 4 3 5 6 1 1 1 3 5 10 12 15 18 21 22 24 27 25 21 21 20 19 16 14 12 10 6 4 2 2 7 11 14 16 19 21 20 16 11 11
3 3 6 4 2 3 3 3 5 3 4 5 4 2 3 2 3 4 6 9 13 16 18 21 23 25 26 26 24 22 21 21 20 19 17 14 11 8 3 3 10 11 15 18 19 18 17 13 8
6 6 4 6 4 4 3 2 7 5 4 4 8 7 5 2 2 1 4 8 11 14 17 19 21 24 24 26 26 26 24 21 20 19 18 15 15 15 11 3 2 7 12 15 16 16 13 12 8
3 4 5 5 3 4 4 4 2 3 5 6 8 5 0 4 4 3 1 3 7 10 13 15 18 20 22 23 24 24 24 23 21 20 16 16 15 14 12 8 6 3 7 9 12 11 11 10 10
1 2 3 4 1 3 2 5 7 1 9 8 8 6 7 7 6 7 6 2 4 8 10 13 15 17 20 21 21 22 22 23 23 21 19 19 18 16 11 8 4 5 5 9 10 9 10 10 10
2 4 3 3 2 5 4 3 5 5 5 9 10 9 10 9 9 7 7 4 3 2 6 9 13 16 18 19 20 19 19 20 20 21 22 22 19 15 11 7 6 5 5 3 5 7 8 9 9
2 1 4 3 4 4 3 4 6 4 7 7 8 9 8 9 8 7 9 3 5 6 8 9 12 15 19 21 20 18 18 18 18 19 20 20 19 18 15 11 7 5 4 4 5 7 8 8 8
3 5 5 4 5 4 3 11 7 8 5 9 12 12 10 8 8 7 5 2 4 6 6 9 11 12 13 13 15 17 16 17 18 18 18 18 18 18 17 15 12 8 6 6 4 6 7 9 10
Wind_Direction
344 348 337 28 57 61 30 50 321 19 12 341 302 47 126 73 348 234 322 354 350 340 338 351 349 283 262 227 228 188 183 184 202 216 208 195 185 178 179 186 178 166 160 145 145 135 133 126 119
347 354 15 72 81 72 310 309 27 332 299 325 348 59 54 35 4 335 347 341 353 348 347 12 335 359 335 297 233 235 227 201 204 205 222 212 202 198 192 196 188 177 164 160 153 145 140 132 127
2 17 69 77 99 126 138 292 350 347 5 1 5 57 57 314 340 334 334 339 354 9 358 351 4 311 319 316 287 242 292 245 227 216 214 221 214 208 202 200 196 189 179 170 153 147 147 139 136
358 22 30 83 86 5 110 268 4 1 355 9 345 53 60 28 351 345 350 354 359 26 19 355 346 8 340 312 319 309 278 287 262 228 221 223 223 219 211 207 199 193 184 170 155 153 153 141 134
43 53 60 84 72 86 316 235 60 52 13 342 352 354 71 13 13 23 25 29 24 27 22 25 5 335 310 315 319 314 281 287 278 256 246 246 237 232 220 210 203 194 178 160 151 159 153 142 134
39 81 64 94 115 189 350 3 46 70 346 340 20 77 78 4 26 32 30 31 26 20 21 24 20 16 344 13 326 325 44 68 49 32 30 355 267 251 222 208 196 177 168 150 154 155 149 138 135
103 77 163 137 137 62 323 305 49 25 356 329 290 357 158 12 38 20 24 26 22 17 17 25 24 15 19 10 348 336 360 59 57 39 30 16 358 293 227 192 177 157 140 143 154 154 145 140 135
98 89 100 37 125 78 351 31 21 41 302 314 357 17 339 334 21 14 13 12 13 15 14 13 15 27 35 41 44 96 96 342 308 335 345 352 8 11 6 170 151 142 142 157 161 150 142 139 138
75 59 67 30 97 136 3 30 341 294 6 9 63 103 293 14 17 14 12 6 4 5 7 9 13 12 6 12 22 9 333 329 5 336 320 311 333 331 350 37 137 140 146 146 153 145 142 141 146
68 89 147 307 107 135 93 55 323 19 336 327 343 122 26 34 33 30 17 6 359 355 353 358 2 4 354 343 331 339 333 318 357 116 260 289 275 336 327 16 76 120 131 141 142 141 141 145 146
33 127 144 8 118 58 17 1 345 5 314 234 305 324 13 29 34 28 16 6 356 347 347 351 352 351 355 347 330 321 317 335 298 284 260 207 183 137 129 240 336 93 133 146 143 137 137 141 141
75 19 8 104 27 51 331 315 329 217 246 245 272 333 47 42 44 28 15 3 353 348 345 344 348 347 341 349 328 320 302 334 359 274 154 159 167 170 155 149 136 63 133 133 132 133 135 144 143
59 351 333 318 313 265 41 262 247 270 275 266 312 49 47 54 47 29 13 3 354 350 344 342 342 344 339 332 322 294 257 262 188 159 169 168 148 137 151 142 139 136 136 131 132 134 135 135 135
319 320 293 300 297 270 236 290 15 293 18 3 51 65 59 61 41 29 16 4 357 347 344 340 338 343 342 336 328 284 245 212 200 165 173 177 162 163 164 146 137 137 132 129 130 131 131 128 130
13 355 343 345 265 214 152 338 228 308 265 342 50 63 65 54 43 34 19 8 359 349 343 345 338 337 343 344 343 297 263 221 218 187 165 170 161 156 162 155 158 155 139 131 129 127 128 128 125
31 48 28 328 91 344 19 278 285 248 350 309 8 69 66 43 43 31 18 8 358 354 351 350 349 340 343 349 345 317 256 242 218 182 169 175 171 166 163 162 161 169 168 155 131 133 130 129 133
9 48 357 337 41 49 24 276 275 9 341 305 310 83 70 49 37 25 17 11 5 0 356 357 357 350 346 351 351 340 272 225 220 212 190 187 189 179 171 173 168 173 173 164 153 163 155 135 130
307 8 325 276 329 3 293 281 293 288 311 288 258 107 78 55 27 23 18 15 12 8 5 4 3 349 352 348 7 12 36 187 199 218 213 205 201 198 186 186 179 176 176 163 163 158 152 143 136
140 180 268 266 303 343 169 283 290 318 286 314 117 89 82 73 28 30 21 18 16 15 11 8 4 1 0 3 4 359 19 35 46 209 235 223 210 203 196 192 187 186 181 175 163 151 148 141 138
54 358 335 296 336 335 351 293 324 10 356 351 132 128 140 71 30 25 23 24 23 19 15 10 8 8 9 8 3 349 352 39 38 48 234 244 221 210 204 195 188 180 179 170 166 166 157 162 156
29 23 6 275 323 323 347 337 338 39 45 44 86 145 71 68 45 18 21 23 23 23 20 19 16 15 19 17 16 23 23 22 30 20 16 185 206 201 205 201 197 184 178 178 177 178 173 172 190
33 348 327 324 25 314 50 283 308 338 344 297 264 61 58 48 39 31 27 25 23 22 25 27 30 28 28 31 35 39 40 34 25 28 22 50 76 214 212 203 197 191 191 191 188 185 189 193 198
245 292 285 265 93 0 3 66 274 329 319 330 325 83 29 83 84 39 28 25 27 26 27 29 33 35 35 37 39 41 38 41 46 42 40 34 60 70 214 211 210 204 197 188 191 190 188 185 189
303 334 41 48 75 28 247 111 283 302 324 336 332 198 214 165 99 64 31 22 25 28 30 30 33 35 34 37 40 42 40 35 37 42 40 34 36 47 36 235 218 210 202 195 194 194 206 201 205
51 40 352 355 5 217 248 3 246 299 5 306 291 235 212 203 178 118 42 16 17 21 25 29 31 34 34 35 36 37 40 40 34 33 29 28 38 41 25 332 200 226 211 205 206 199 190 203 220
64 116 143 242 271 270 279 235 243 5 323 350 8 11 183 230 241 207 122 23 11 14 21 26 29 32 31 32 33 36 37 40 37 34 22 23 21 32 31 356 18 244 214 207 201 196 192 207 218
172 74 155 106 65 25 244 310 320 148 20 14 356 355 286 256 244 228 179 156 14 9 17 16 23 27 28 27 27 29 33 34 33 33 30 27 23 21 12 16 25 353 268 224 213 205 205 214 230
112 149 64 9 12 305 275 240 234 354 319 17 8 347 329 306 289 260 231 183 124 43 13 15 16 20 17 17 19 19 23 29 31 29 26 24 25 25 13 5 13 14 321 330 264 241 234 233 234
36 34 58 118 149 189 286 258 210 111 46 1 345 350 328 331 298 254 246 238 103 74 24 2 12 7 6 1 358 360 8 16 23 26 24 20 17 20 20 18 12 15 325 331 345 314 266 250 243
178 178 143 132 252 222 176 268 306 102 99 20 343 323 317 324 318 257 232 174 125 58 348 342 6 0 350 345 340 339 348 360 7 15 20 18 16 17 18 21 16 3 344 4 334 328 301 268 260
Height
803 800 797 797 826 836 846 837 828 827 822 812 809 811 820 820 823 835 810 807 804 799 797 794 792 796 797 797 797 796 794 795 796 796 796 796 797 797 798 800 800 801 801 803 804 805 805 805 806
803 800 799 810 842 857 857 838 835 826 818 814 811 812 820 827 819 815 812 809 805 802 796 793 792 794 798 800 797 794 795 794 794 795 797 796 797 798 798 800 800 800 802 802 804 805 805 805 805
803 802 811 829 850 856 854 837 831 823 821 818 816 816 824 830 822 819 815 810 806 805 801 801 801 796 799 789 794 793 792 795 795 795 795 797 797 797 797 798 799 800 801 802 803 804 806 805 805
804 805 818 840 844 845 840 836 830 830 823 821 819 827 828 828 827 823 817 811 809 809 806 803 797 794 797 796 798 794 796 794 796 795 794 795 797 796 796 797 797 798 799 801 801 804 806 805 804
806 816 837 843 844 842 838 832 828 835 832 829 825 834 832 830 829 823 818 815 810 810 810 806 801 798 792 801 799 797 796 795 799 795 795 796 796 797 795 796 796 798 799 800 802 803 805 804 804
820 827 850 852 843 840 836 833 830 835 836 830 832 832 835 832 826 823 819 817 815 812 810 807 805 800 798 795 799 799 799 795 795 796 794 794 795 797 794 794 796 797 798 800 803 803 805 804 805
825 838 847 844 840 841 837 831 834 835 834 832 829 833 833 830 829 826 821 817 816 814 810 808 807 802 799 796 794 798 799 799 793 798 798 798 795 795 794 792 794 796 799 800 802 804 804 805 806
826 835 836 842 846 846 841 833 833 836 834 829 829 843 840 834 831 826 820 817 816 815 812 809 807 805 804 800 799 795 794 794 793 794 800 803 798 796 788 780 790 795 797 801 804 805 805 806 807
823 847 852 844 840 844 841 840 838 835 836 833 834 837 837 833 829 822 819 817 815 815 814 811 808 806 805 805 802 800 797 793 788 790 797 799 799 796 794 781 788 794 797 802 805 805 806 807 808
836 853 842 839 839 842 842 843 843 840 842 837 837 838 836 832 827 825 826 825 820 816 814 813 810 807 806 805 803 802 798 795 792 785 791 794 795 796 796 799 792 798 799 802 806 805 807 808 809
837 849 840 842 841 839 842 842 842 843 842 839 839 836 833 831 830 831 832 830 828 823 817 813 809 807 805 804 803 802 799 796 795 790 792 793 793 790 791 795 807 805 807 805 805 806 807 809 811
843 844 842 843 841 840 842 842 844 842 840 837 837 837 837 836 836 835 834 831 828 823 819 815 812 807 805 803 801 801 800 798 796 795 790 790 792 793 796 795 795 808 810 808 807 806 808 810 812
845 848 846 844 843 841 840 842 843 841 839 837 837 838 838 838 838 838 836 833 830 825 821 817 813 809 805 802 801 798 799 799 797 794 792 792 792 789 793 795 794 805 810 809 809 809 810 811 813
848 849 849 846 842 840 842 844 842 839 838 839 839 841 841 841 841 838 835 834 831 828 823 819 813 809 805 803 801 800 799 798 798 796 794 794 792 793 793 793 799 803 808 811 811 811 810 811 814
846 850 850 845 844 843 843 842 845 842 840 840 843 843 844 844 842 841 839 836 833 829 825 820 814 810 805 802 801 799 798 798 798 797 797 797 796 796 793 797 798 802 808 811 812 812 812 813 816
851 856 861 847 846 848 847 855 842 840 840 841 843 847 848 847 845 844 841 837 833 830 825 820 815 810 806 802 800 799 797 797 798 798 797 798 798 797 798 798 798 802 805 808 811 814 813 813 817
869 863 859 856 848 848 851 853 844 842 845 847 847 850 850 850 847 846 843 838 833 830 825 820 815 811 807 804 801 798 797 796 796 798 798 799 801 799 798 800 799 803 805 806 808 813 813 813 817
863 863 862 864 858 857 858 858 850 847 846 845 847 852 854 852 851 848 845 840 835 831 827 822 817 813 808 804 802 800 797 796 796 798 797 796 798 799 798 800 800 801 804 807 808 812 814 815 819
863 865 868 869 862 860 859 862 848 847 845 847 852 856 855 853 852 850 846 842 837 832 827 824 820 815 810 804 802 801 800 799 797 796 797 797 797 797 797 798 799 801 803 807 809 811 815 818 817
867 871 876 870 863 860 865 863 855 851 853 850 855 855 853 852 853 851 849 844 840 836 831 827 823 818 813 809 806 805 802 799 798 797 797 798 797 796 797 798 799 800 804 806 808 810 813 817 817
872 872 876 877 873 864 868 867 865 859 858 857 855 854 856 856 855 854 851 848 844 840 836 831 826 821 817 812 808 805 804 802 801 800 799 799 797 798 798 799 800 801 802 807 810 810 811 816 819
873 874 874 875 881 889 873 903 872 863 858 856 855 861 861 861 859 856 853 850 848 845 841 837 832 825 820 816 812 810 808 806 805 803 801 799 799 800 800 800 801 802 804 806 810 811 814 814 819
873 871 875 873 882 885 885 905 876 865 852 854 860 863 863 862 859 857 855 854 851 848 845 841 836 831 826 821 817 814 812 811 808 805 803 803 802 801 802 802 802 802 804 805 808 809 811 813 816
871 872 885 890 893 937 884 890 883 868 859 864 861 863 863 862 860 857 856 855 853 850 847 845 841 836 832 828 823 819 817 815 812 809 807 807 805 803 803 803 803 804 805 805 806 808 810 812 813
878 891 944 931 939 927 883 887 875 864 866 865 864 862 863 864 861 858 856 855 854 852 850 847 844 841 837 834 830 826 823 821 818 815 813 811 807 806 804 805 803 802 804 805 805 807 807 810 811
880 892 940 944 938 913 886 903 871 869 867 867 871 868 867 865 862 859 857 856 855 854 852 850 847 844 841 838 836 832 829 826 824 820 819 816 812 807 807 807 804 806 805 805 806 806 806 808 810
885 903 890 936 961 941 898 884 866 867 873 874 873 870 868 865 862 858 855 854 855 855 853 852 849 847 844 842 840 837 833 830 827 825 824 819 816 811 810 810 808 806 806 807 805 805 806 807 808
880 886 913 941 952 958 909 888 881 869 880 877 878 877 874 869 865 861 859 855 853 853 853 852 851 849 847 845 843 841 838 834 831 828 824 822 818 816 815 811 809 807 807 804 805 805 804 805 806
901 907 907 908 920 947 947 892 878 877 882 883 881 877 874 868 863 861 860 859 855 854 854 853 849 849 847 846 844 842 840 837 833 830 828 826 822 819 816 814 810 807 808 806 803 803 804 804 805
883 886 898 933 927 920 924 881 868 881 883 882 880 877 871 868 863 859 859 859 859 855 857 856 851 850 850 847 845 844 841 839 835 832 830 828 825 822 818 815 812 809 808 804 804 804 805 804 805